AAR714 RCTP-RKSI

Flight info

Callsign AAR714
Flight time 2h 7m
Altitude 35000
Route PIANO1A/05R PIANO L3 SALMI B576 CJU Y722 OLMEN OLMEN1Y
Aircraft A321/M-SDE3FGHIRWY/LB1

Departure

Time 2026-05-04 09:08
Airport Taiwan Taoyuan International Airport (RCTP)

Arrival

Time 2026-05-04 11:16
Airport Incheon International Airport (RKSI)
Time Latitude Longitude Altitude Speed Heading
2026-05-04 08:33 25.07561 121.23370 101 ft 0 kts 319°
2026-05-04 09:01 25.07483 121.23485 100 ft 0 kts 229°
2026-05-04 09:02 25.07476 121.23477 100 ft 6 kts 229°
2026-05-04 09:03 25.07428 121.23414 101 ft 12 kts 229°
2026-05-04 09:03 25.07369 121.23339 101 ft 13 kts 230°
2026-05-04 09:03 25.07307 121.23258 101 ft 14 kts 229°
2026-05-04 09:03 25.07234 121.23184 101 ft 14 kts 194°
2026-05-04 09:04 25.07152 121.23233 99 ft 13 kts 141°
2026-05-04 09:04 25.07072 121.23273 101 ft 13 kts 197°
2026-05-04 09:04 25.07003 121.23199 100 ft 14 kts 229°
2026-05-04 09:04 25.06929 121.23105 100 ft 20 kts 229°
2026-05-04 09:05 25.06836 121.22987 100 ft 21 kts 229°
2026-05-04 09:05 25.06740 121.22865 99 ft 21 kts 229°
2026-05-04 09:05 25.06641 121.22740 100 ft 22 kts 229°
2026-05-04 09:05 25.06541 121.22612 99 ft 22 kts 228°
2026-05-04 09:06 25.06438 121.22483 100 ft 22 kts 229°
2026-05-04 09:07 25.06206 121.22511 95 ft 41 kts 49°
2026-05-04 09:08 25.06551 121.22948 95 ft 107 kts 49°
2026-05-04 09:08 25.07157 121.23717 97 ft 156 kts 50°
2026-05-04 09:08 25.07909 121.24649 542 ft 164 kts 49°
2026-05-04 09:08 25.08663 121.25612 1169 ft 167 kts 53°
2026-05-04 09:09 25.09411 121.26601 1794 ft 168 kts 54°
2026-05-04 09:09 25.10178 121.27616 2060 ft 181 kts 54°
2026-05-04 09:09 25.11027 121.28750 2169 ft 203 kts 54°
2026-05-04 09:09 25.12214 121.29764 2366 ft 237 kts 23°
2026-05-04 09:10 25.13928 121.29785 2911 ft 260 kts 354°
2026-05-04 09:10 25.15717 121.29354 3629 ft 265 kts 353°
2026-05-04 09:10 25.17540 121.28925 4325 ft 269 kts 355°
2026-05-04 09:10 25.19401 121.28692 5074 ft 270 kts 360°
2026-05-04 09:11 25.21298 121.28616 5741 ft 276 kts 359°
2026-05-04 09:11 25.23244 121.28593 6400 ft 283 kts 356°
2026-05-04 09:11 25.25234 121.28576 7067 ft 288 kts 356°
2026-05-04 09:11 25.27251 121.28546 7767 ft 292 kts 354°
2026-05-04 09:12 25.29289 121.28497 8467 ft 294 kts 353°
2026-05-04 09:12 25.31346 121.28434 9130 ft 297 kts 353°
2026-05-04 09:14 25.45335 121.36510 12211 ft 389 kts 46°
2026-05-04 09:14 25.47128 121.38778 12771 ft 393 kts 46°
2026-05-04 09:14 25.48942 121.41072 13310 ft 398 kts 45°
2026-05-04 09:14 25.50776 121.43396 13841 ft 403 kts 45°
2026-05-04 09:15 25.52625 121.45748 14324 ft 408 kts 45°
2026-05-04 09:15 25.54498 121.48137 14826 ft 412 kts 45°
2026-05-04 09:15 25.56378 121.50541 15337 ft 415 kts 45°
2026-05-04 09:15 25.58273 121.52970 15833 ft 419 kts 45°
2026-05-04 09:17 25.74027 121.73218 19604 ft 446 kts 45°
2026-05-04 09:18 25.76059 121.75833 20032 ft 449 kts 45°
2026-05-04 09:18 25.78105 121.78471 20460 ft 452 kts 45°
2026-05-04 09:18 25.80203 121.81081 20872 ft 453 kts 39°
2026-05-04 09:18 25.82585 121.83339 21283 ft 449 kts 30°
2026-05-04 09:19 25.85126 121.85377 21703 ft 452 kts 30°
2026-05-04 09:19 25.87685 121.87430 22110 ft 455 kts 30°
2026-05-04 09:19 25.90252 121.89496 22518 ft 458 kts 30°
2026-05-04 09:19 25.92835 121.91581 22908 ft 460 kts 30°
2026-05-04 09:20 25.95433 121.93685 23293 ft 463 kts 30°
2026-05-04 09:20 25.98040 121.95801 23670 ft 466 kts 30°
2026-05-04 09:20 26.00665 121.97935 23981 ft 469 kts 30°
2026-05-04 09:20 26.03309 122.00080 24283 ft 471 kts 30°
2026-05-04 09:21 26.05977 122.02211 24588 ft 473 kts 29°
2026-05-04 09:21 26.08673 122.04326 24891 ft 476 kts 28°
2026-05-04 09:21 26.11397 122.06438 25182 ft 478 kts 28°
2026-05-04 09:21 26.14137 122.08554 25466 ft 481 kts 28°
2026-05-04 09:22 26.16899 122.10694 25752 ft 484 kts 28°
2026-05-04 09:22 26.19664 122.12848 26039 ft 487 kts 29°
2026-05-04 09:22 26.22443 122.15025 26324 ft 490 kts 29°
2026-05-04 09:22 26.25231 122.17214 26602 ft 493 kts 29°
2026-05-04 09:23 26.28047 122.19427 26877 ft 496 kts 29°
2026-05-04 09:23 26.30876 122.21651 27149 ft 498 kts 29°
2026-05-04 09:23 26.33716 122.23884 27425 ft 501 kts 29°
2026-05-04 09:23 26.36574 122.26133 27699 ft 504 kts 29°
2026-05-04 09:25 26.57008 122.42249 29485 ft 524 kts 29°
2026-05-04 09:25 26.59993 122.44611 29739 ft 526 kts 29°
2026-05-04 09:26 26.62979 122.46979 29960 ft 529 kts 29°
2026-05-04 09:26 26.65990 122.49366 30219 ft 531 kts 29°
2026-05-04 09:26 26.69008 122.51758 30434 ft 534 kts 29°
2026-05-04 09:26 26.72044 122.54162 30644 ft 536 kts 28°
2026-05-04 09:27 26.75096 122.56577 30881 ft 538 kts 28°
2026-05-04 09:27 26.78147 122.58998 31192 ft 537 kts 28°
2026-05-04 09:27 26.81192 122.61415 31517 ft 537 kts 28°
2026-05-04 09:27 26.84233 122.63833 31820 ft 536 kts 28°
2026-05-04 09:28 26.87271 122.66249 32133 ft 536 kts 28°
2026-05-04 09:28 26.90311 122.68665 32436 ft 536 kts 28°
2026-05-04 09:28 26.93357 122.71086 32736 ft 536 kts 28°
2026-05-04 09:28 26.96392 122.73506 33029 ft 536 kts 28°
2026-05-04 09:29 26.99425 122.75933 33314 ft 536 kts 28°
2026-05-04 09:29 27.02457 122.78360 33622 ft 536 kts 28°
2026-05-04 09:29 27.05490 122.80785 33903 ft 536 kts 27°
2026-05-04 09:29 27.08527 122.83207 34179 ft 535 kts 27°
2026-05-04 09:30 27.11562 122.85627 34427 ft 535 kts 27°
2026-05-04 09:30 27.14599 122.88050 34693 ft 535 kts 27°
2026-05-04 09:30 27.17619 122.90470 34959 ft 534 kts 28°
2026-05-04 09:30 27.20643 122.92899 35131 ft 534 kts 28°
2026-05-04 09:31 27.26533 122.97964 35169 ft 534 kts 32°
2026-05-04 09:31 27.32159 123.03470 35172 ft 537 kts 35°
2026-05-04 09:32 27.37732 123.09057 35172 ft 536 kts 34°
2026-05-04 09:34 27.60410 123.30814 35189 ft 538 kts 33°
2026-05-04 09:34 27.66086 123.36301 35191 ft 538 kts 33°
2026-05-04 09:35 27.71806 123.41842 35187 ft 538 kts 33°
2026-05-04 09:35 27.77448 123.47309 35188 ft 538 kts 33°
2026-05-04 09:37 28.00211 123.69419 35187 ft 540 kts 33°
2026-05-04 09:38 28.05949 123.75010 35187 ft 541 kts 33°
2026-05-04 09:38 28.11650 123.80552 35188 ft 541 kts 33°
2026-05-04 09:39 28.17349 123.86121 35186 ft 541 kts 33°
2026-05-04 09:39 28.23049 123.91704 35193 ft 541 kts 33°
2026-05-04 09:40 28.28755 123.97296 35193 ft 542 kts 33°
2026-05-04 09:40 28.33922 124.03654 35189 ft 556 kts 48°
2026-05-04 09:42 28.52365 124.31902 35197 ft 558 kts 49°
2026-05-04 09:43 28.56233 124.37856 35198 ft 558 kts 49°
2026-05-04 09:43 28.60850 124.44954 35196 ft 558 kts 49°
2026-05-04 09:44 28.65468 124.52067 35197 ft 558 kts 49°
2026-05-04 09:46 28.87469 124.74392 35188 ft 510 kts
2026-05-04 09:46 28.94173 124.77045 35186 ft 511 kts
2026-05-04 09:47 29.00895 124.79723 35187 ft 512 kts
2026-05-04 09:49 29.27809 124.90495 35196 ft 513 kts
2026-05-04 09:51 29.51371 124.99989 35197 ft 512 kts
2026-05-04 09:51 29.58090 125.02694 35200 ft 512 kts
2026-05-04 09:52 29.64817 125.05398 35197 ft 511 kts
2026-05-04 09:52 29.71523 125.08100 35201 ft 511 kts
2026-05-04 09:53 29.78193 125.10802 35199 ft 511 kts
2026-05-04 09:53 29.84898 125.13528 35210 ft 511 kts
2026-05-04 09:54 29.91595 125.16251 35199 ft 510 kts
2026-05-04 09:54 29.98290 125.18973 35200 ft 510 kts
2026-05-04 09:55 30.04982 125.21706 35200 ft 510 kts
2026-05-04 09:55 30.11667 125.24447 35198 ft 510 kts
2026-05-04 09:56 30.18354 125.27185 35201 ft 509 kts
2026-05-04 09:56 30.25022 125.29921 35201 ft 509 kts
2026-05-04 09:57 30.31695 125.32661 35202 ft 508 kts
2026-05-04 09:57 30.38363 125.35405 35201 ft 508 kts
2026-05-04 09:58 30.45019 125.38149 35202 ft 507 kts
2026-05-04 09:58 30.51673 125.40895 35201 ft 507 kts
2026-05-04 10:00 30.78200 125.51891 35193 ft 505 kts
2026-05-04 10:04 31.24443 125.71192 35196 ft 504 kts 10°
2026-05-04 10:04 31.31032 125.73958 35162 ft 503 kts 10°
2026-05-04 10:05 31.37625 125.76735 35166 ft 503 kts 10°
2026-05-04 10:05 31.44163 125.79489 35162 ft 503 kts 10°
2026-05-04 10:06 31.50792 125.82288 35167 ft 503 kts 10°
2026-05-04 10:06 31.57337 125.85049 35164 ft 503 kts 10°
2026-05-04 10:08 31.80470 125.94790 35175 ft 506 kts 10°
2026-05-04 10:08 31.87100 125.97588 35177 ft 507 kts 10°
2026-05-04 10:09 31.93741 126.00394 35172 ft 508 kts 10°
2026-05-04 10:09 32.00403 126.03223 35174 ft 509 kts 10°
2026-05-04 10:10 32.07074 126.06045 35174 ft 510 kts 10°
2026-05-04 10:10 32.13748 126.08875 35174 ft 510 kts 10°
2026-05-04 10:11 32.20432 126.11709 35166 ft 511 kts 10°
2026-05-04 10:11 32.27119 126.14550 35170 ft 511 kts 11°
2026-05-04 10:12 32.33815 126.17395 35166 ft 511 kts 11°
2026-05-04 10:12 32.40515 126.20246 35169 ft 512 kts 11°
2026-05-04 10:13 32.47218 126.23109 35165 ft 512 kts 11°
2026-05-04 10:13 32.53925 126.25978 35170 ft 513 kts 11°
2026-05-04 10:14 32.60651 126.28852 35168 ft 514 kts 11°
2026-05-04 10:16 32.87561 126.40436 35178 ft 515 kts 11°
2026-05-04 10:16 32.94306 126.43359 35174 ft 516 kts 11°
2026-05-04 10:17 33.01049 126.46283 35170 ft 516 kts 11°
2026-05-04 10:19 33.28020 126.57877 35165 ft 518 kts 11°
2026-05-04 10:19 33.34791 126.60810 35163 ft 518 kts 11°
2026-05-04 10:20 33.41570 126.63753 35155 ft 518 kts 11°
2026-05-04 10:20 33.48352 126.66709 35162 ft 519 kts 11°
2026-05-04 10:21 33.55156 126.69465 35161 ft 508 kts
2026-05-04 10:21 33.58596 126.70150 35166 ft 495 kts 354°
2026-05-04 10:21 33.62019 126.70500 35170 ft 494 kts 353°
2026-05-04 10:22 33.72303 126.71575 35171 ft 495 kts 354°
2026-05-04 10:23 33.79158 126.72298 35173 ft 495 kts 354°
2026-05-04 10:25 34.05448 126.75070 35166 ft 494 kts 354°
2026-05-04 10:25 34.12302 126.75785 35158 ft 494 kts 354°
2026-05-04 10:26 34.19152 126.76504 35154 ft 494 kts 354°
2026-05-04 10:26 34.25994 126.77217 35149 ft 495 kts 354°
2026-05-04 10:27 34.32873 126.77948 35150 ft 496 kts 354°
2026-05-04 10:27 34.39760 126.78690 35142 ft 497 kts 354°
2026-05-04 10:28 34.46653 126.79425 35135 ft 498 kts 354°
2026-05-04 10:28 34.53556 126.80160 35129 ft 499 kts 354°
2026-05-04 10:29 34.60477 126.80894 35142 ft 499 kts 354°
2026-05-04 10:29 34.67393 126.81628 35136 ft 499 kts 354°
2026-05-04 10:30 34.74315 126.82369 35147 ft 500 kts 354°
2026-05-04 10:30 34.81254 126.83120 35147 ft 500 kts 354°
2026-05-04 10:31 34.88192 126.83869 35143 ft 500 kts 354°
2026-05-04 10:32 35.12500 126.86503 35152 ft 501 kts 354°
2026-05-04 10:33 35.19448 126.87250 35145 ft 501 kts 354°
2026-05-04 10:33 35.26377 126.88003 35143 ft 500 kts 355°
2026-05-04 10:34 35.33305 126.88757 35132 ft 500 kts 355°
2026-05-04 10:34 35.40231 126.89505 35135 ft 500 kts 355°
2026-05-04 10:35 35.47156 126.90263 35136 ft 500 kts 355°
2026-05-04 10:35 35.54089 126.91025 35134 ft 499 kts 355°
2026-05-04 10:36 35.57524 126.91404 34845 ft 494 kts 355°
2026-05-04 10:36 35.60928 126.91783 34468 ft 489 kts 355°
2026-05-04 10:36 35.64312 126.92159 34077 ft 486 kts 355°
2026-05-04 10:36 35.67659 126.92526 33637 ft 482 kts 355°
2026-05-04 10:37 35.70987 126.92890 33211 ft 477 kts 355°
2026-05-04 10:37 35.74279 126.93250 32769 ft 473 kts 355°
2026-05-04 10:37 35.77539 126.93610 32345 ft 469 kts 355°
2026-05-04 10:37 35.80781 126.93971 31930 ft 465 kts 355°
2026-05-04 10:39 35.99612 126.96043 29462 ft 442 kts 355°
2026-05-04 10:39 36.02662 126.96383 29016 ft 439 kts 355°
2026-05-04 10:39 36.05688 126.96721 28588 ft 435 kts 355°
2026-05-04 10:40 36.08698 126.97056 28175 ft 432 kts 355°
2026-05-04 10:40 36.11682 126.97386 27756 ft 430 kts 355°
2026-05-04 10:40 36.14659 126.97714 27354 ft 427 kts 354°
2026-05-04 10:40 36.17610 126.98034 26976 ft 425 kts 354°
2026-05-04 10:41 36.20548 126.98356 26596 ft 422 kts 354°
2026-05-04 10:41 36.23459 126.98682 26198 ft 420 kts 354°
2026-05-04 10:41 36.26363 126.99008 25820 ft 418 kts 354°
2026-05-04 10:41 36.29244 126.99332 25362 ft 414 kts 354°
2026-05-04 10:42 36.32105 126.99657 24768 ft 410 kts 354°
2026-05-04 10:42 36.34935 126.99979 24187 ft 407 kts 354°
2026-05-04 10:42 36.37745 127.00293 23602 ft 403 kts 354°
2026-05-04 10:42 36.40488 127.00325 22918 ft 390 kts 347°
2026-05-04 10:43 36.43185 127.00215 22253 ft 386 kts 347°
2026-05-04 10:44 36.61309 126.99563 18141 ft 358 kts 350°
2026-05-04 10:45 36.63798 126.99473 17669 ft 355 kts 350°
2026-05-04 10:45 36.66250 126.99386 17300 ft 351 kts 350°
2026-05-04 10:45 36.68684 126.99299 16937 ft 348 kts 351°
2026-05-04 10:45 36.71087 126.99211 16573 ft 344 kts 351°
2026-05-04 10:46 36.73442 126.98978 16212 ft 333 kts 341°
2026-05-04 10:46 36.75602 126.98137 15862 ft 320 kts 329°
2026-05-04 10:46 36.77642 126.97053 15475 ft 318 kts 330°
2026-05-04 10:46 36.79673 126.95975 15088 ft 316 kts 330°
2026-05-04 10:47 36.81682 126.94911 14729 ft 313 kts 331°
2026-05-04 10:47 36.83679 126.93856 14381 ft 311 kts 332°
2026-05-04 10:47 36.85665 126.92810 14037 ft 308 kts 332°
2026-05-04 10:47 36.87632 126.91774 13689 ft 306 kts 332°
2026-05-04 10:49 36.95230 126.78742 10978 ft 275 kts 280°
2026-05-04 10:49 36.95596 126.76405 10611 ft 273 kts 280°
2026-05-04 10:50 36.95963 126.74081 10252 ft 271 kts 281°
2026-05-04 10:51 36.98360 126.58742 9001 ft 247 kts 281°
2026-05-04 10:52 36.98689 126.56636 9006 ft 247 kts 280°
2026-05-04 10:52 36.98777 126.54511 9008 ft 247 kts 260°
2026-05-04 10:52 36.98072 126.52558 9006 ft 252 kts 233°
2026-05-04 10:54 36.90730 126.61607 8990 ft 298 kts 100°
2026-05-04 10:54 36.90535 126.64177 8992 ft 297 kts 81°
2026-05-04 10:56 36.98020 126.61184 9009 ft 245 kts 279°
2026-05-04 10:56 36.98332 126.59091 8997 ft 245 kts 279°
2026-05-04 10:56 36.98645 126.56997 9008 ft 245 kts 279°
2026-05-04 10:57 36.98819 126.54883 8998 ft 244 kts 264°
2026-05-04 10:57 36.98253 126.52890 9007 ft 248 kts 238°
2026-05-04 10:57 36.96956 126.51455 9018 ft 257 kts 210°
2026-05-04 10:57 36.95184 126.50985 9016 ft 270 kts 181°
2026-05-04 10:58 36.93383 126.51762 9015 ft 284 kts 147°
2026-05-04 10:58 36.92147 126.53704 9017 ft 294 kts 112°
2026-05-04 10:58 36.91609 126.56191 9003 ft 297 kts 103°
2026-05-04 10:58 36.91205 126.58727 9002 ft 298 kts 101°
2026-05-04 10:59 36.90841 126.61273 9003 ft 298 kts 101°
2026-05-04 10:59 36.90594 126.63846 8996 ft 299 kts 84°
2026-05-04 10:59 36.91242 126.66250 9009 ft 292 kts 50°
2026-05-04 10:59 36.92760 126.67799 9006 ft 279 kts 14°
2026-05-04 11:00 36.94604 126.68036 9006 ft 263 kts 341°
2026-05-04 11:01 36.98826 126.55046 9009 ft 242 kts 265°
2026-05-04 11:02 36.98316 126.53053 9007 ft 245 kts 239°
2026-05-04 11:02 36.97069 126.51580 9013 ft 254 kts 212°
2026-05-04 11:05 37.04826 126.64460 6553 ft 244 kts 351°
2026-05-04 11:06 37.06484 126.64303 6170 ft 236 kts 351°
2026-05-04 11:06 37.08122 126.64137 5701 ft 236 kts 351°
2026-05-04 11:06 37.09753 126.63966 5315 ft 235 kts 351°
2026-05-04 11:06 37.11377 126.63796 4931 ft 234 kts 351°
2026-05-04 11:08 37.22361 126.62535 3001 ft 223 kts 340°
2026-05-04 11:10 37.29857 126.56443 3004 ft 177 kts 321°
2026-05-04 11:12 37.36641 126.50437 2188 ft 150 kts 320°
2026-05-04 11:12 37.37486 126.49687 1980 ft 147 kts 320°
2026-05-04 11:12 37.38289 126.48976 1788 ft 138 kts 319°
2026-05-04 11:12 37.39065 126.48286 1604 ft 136 kts 320°
2026-05-04 11:13 37.39839 126.47599 1411 ft 136 kts 320°
2026-05-04 11:13 37.40613 126.46911 1152 ft 137 kts 320°
2026-05-04 11:13 37.41394 126.46217 865 ft 138 kts 320°
2026-05-04 11:13 37.42175 126.45524 598 ft 137 kts 320°
2026-05-04 11:14 37.42952 126.44834 377 ft 137 kts 320°
2026-05-04 11:14 37.43727 126.44145 163 ft 136 kts 320°
2026-05-04 11:14 37.44502 126.43465 35 ft 134 kts 321°
2026-05-04 11:16 37.46101 126.42446 33 ft 11 kts 53°
2026-05-04 11:16 37.46155 126.42543 33 ft 15 kts 55°
2026-05-04 11:16 37.46220 126.42655 33 ft 15 kts 54°
2026-05-04 11:17 37.46227 126.42762 31 ft 13 kts 134°
2026-05-04 11:17 37.46147 126.42833 33 ft 15 kts 145°
2026-05-04 11:19 37.45867 126.43290 33 ft 17 kts 54°
2026-05-04 11:19 37.45942 126.43423 33 ft 20 kts 54°
2026-05-04 11:19 37.46025 126.43568 33 ft 21 kts 54°
2026-05-04 11:19 37.46101 126.43705 33 ft 15 kts 55°
2026-05-04 11:20 37.46189 126.43702 33 ft 15 kts 324°
2026-05-04 11:20 37.46276 126.43624 33 ft 16 kts 325°
2026-05-04 11:20 37.46342 126.43553 33 ft 9 kts 290°
2026-05-04 11:20 37.46316 126.43479 33 ft 9 kts 238°
2026-05-04 11:22 37.46301 126.43452 33 ft 0 kts 235°